"Pseudo-MPEC" for P212fy4

Created 2020 Jul 10 15:07:11 UT using Find_Orb

Click here for an explanation of pseudo-MPECs

 
 Astrometry: 
     P212fy4  C2020 06 28rM7UfqYy.QIk/Jb]HbW`Je5!lpnLAstrometryuPxIA-58gh!rlFF52
     P212fy4  C2020 06 28'.$u*:S+,Iy2y)0HK7=_ZrW8BV;+66IA+W7ZZ$Y=4[B,s`E-2V3+F52
     P212fy4  C2020 06 28n/eJJpa;t\F+]evaE:P\6Sv\`c8sna)Ye-*LHXbncredacted;%RF52
     P212fy4  C2020 06 28NUmMIw.,4a\pEbOm#2'i@eohCX]`7click5hl\ZJne^g^Z=+^OfMF52
     P212fy4 KC2020 06 29oQB^NTu4k0#8Fs.C0NbHFP`[Gl?PXFFdB^8QY'BC*4C#B$,hereRL01
     P212fy4 KC2020 06 29bUSl;49a-j@-j*)(vZ;#W8ak[4_@l[OEMk3AR@eL'U007akRdHDLL01
     P212fy4 KC2020 06 299%j'ecWDQVKvil)cWUjf@W'kcE9-q-g4,Y6=#hs(bOG%`Wo'wo^XL01
     P212fy4 KC2020 06 29a#T/uaPkforP\Jfy'.rcM48Nmy+b(X`s@d'*9CZ^s=b9piHCRO1EL01
     P212fy4 KC2020 06 29#%D/gJkyhRLcpTmcwMGpD/c;Re8^:I)rNM[QL;@Xh)(vPks#lC!,H21
     P212fy4 KC2020 06 29q-L/lfXu8-#s#TrN2:1;6a`c?S`u.GlsUb93]Rt`%QoY$ClUa/p!H21
     P212fy4 KC2020 06 29L5.30=4V3a1uyX,Msf%BE)ek!t,0k.]ZJE38!FygAyfT,9'LrIqUH21
     P212fy4 KC2020 06 29h=WcIA.1XexplanationBN(ga@Cb?0)sP]Yi+gVqVs(sCJ[T\#\eH21
     P212fy4 ^C2020 06 29.26569717 58 19.120+13 17 45.55   ~6T77 22.10GVNEOCP568
     P212fy4 ^C2020 06 29.26759817 58 18.979+13 17 44.38   ~6T77 21.92GVNEOCP568

Station data:
(568) Mauna Kea  (N19.826116 W155.472200)  US/Hawaii.
(F52) Pan-STARRS 2, Haleakala  (N20.707384 W156.255910)  US/Hawaii. 1.8-m
   Ritchey-Chrétien + CCD.
(H21) Astronomical Research Observatory, Westfield  (N39.483057 W87.968270)
   US/Illinois. 0.76-m f/3.0 astrograph + CCD.
(L01) Višnjan Observatory, Tičan  (N45.290900 E13.749300)  Croatia.
   Observers K. Korlević, E. Pettarin. Measurer E. Pettarin. 1.0-m f/2.9
   reflector + CCD.

Orbital elements:  P212fy4
   Perihelion 2019 Sep 10.811100 +/- 282 TT = 19:27:59 (JD 2458737.311100)
Epoch 2020 Jun 29.0 TT = JDT 2459029.5   Earth MOID: 0.4399   AutoNEOCP
M 119.98987766 +/- 100              (J2000 ecliptic)
n   0.41065857 +/- 0.0691           Peri.  340.37583 +/- 53
a   1.79259474 +/- 0.201            Node   153.49030 +/- 10
e   0.2086397 +/- 0.136             Incl.   22.18784 +/- 5.0
P   2.40/876.62d           H 19.2   G  0.15   U 11.0  SR
q 1.41858817 +/- 0.18    Q 2.16660131 +/- 0.636
From 14 observations 2020 June 28-29 (19.4 hr); mean residual 0".31
Residuals in arcseconds: 
200628 F52  .23-  .21-    200629 L01  .21+  .78+    200629 H21  .25-  .10-    
200628 F52  .16-  .20-    200629 L01  .85+  .07+    200629 H21  .16-  .16-    
200628 F52  .13-  .06-    200629 L01  .39+  .10-    200629 568  .30-  .14-    
200628 F52  .19+  .20+    200629 H21  .09-  .15-    200629 568  .32-  .11-    
200629 L01  .08+  .58+    200629 H21  .07-  .41-    

Ephemerides (geocentric):
Date (UTC) HH   RA              Dec         delta   r     elong  mag " sig PA
---- -- -- --  -------------   -----------  ------ ------ -----  --- ---- ---
2020 07 10 15  17 45 59.539   +10 52 21.92  1.1662 2.0498 139.7 22.0  609 124
2020 07 10 16  17 45 57.164   +10 51 45.12  1.1664 2.0498 139.7 22.0  613 124
2020 07 10 17  17 45 54.791   +10 51 08.29  1.1665 2.0499 139.7 22.0  617 124
2020 07 10 18  17 45 52.421   +10 50 31.44  1.1667 2.0500 139.6 22.0  622 124
2020 07 10 19  17 45 50.054   +10 49 54.55  1.1669 2.0500 139.6 22.0  626 124
2020 07 10 20  17 45 47.690   +10 49 17.63  1.1671 2.0501 139.6 22.0  630 123
2020 07 10 21  17 45 45.329   +10 48 40.69  1.1673 2.0502 139.6 22.0  635 123
2020 07 10 22  17 45 42.970   +10 48 03.71  1.1675 2.0503 139.6 22.0  639 123
2020 07 10 23  17 45 40.615   +10 47 26.71  1.1677 2.0503 139.6 22.0  643 123
2020 07 11 00  17 45 38.262   +10 46 49.67  1.1679 2.0504 139.5 22.0  648 123
2020 07 11 01  17 45 35.913   +10 46 12.61  1.1681 2.0505 139.5 22.0  652 123
2020 07 11 02  17 45 33.566   +10 45 35.51  1.1683 2.0505 139.5 22.0  656 123
2020 07 11 03  17 45 31.222   +10 44 58.39  1.1685 2.0506 139.5 22.0  661 123
2020 07 11 04  17 45 28.881   +10 44 21.24  1.1687 2.0507 139.5 22.0  665 123
2020 07 11 05  17 45 26.543   +10 43 44.06  1.1689 2.0508 139.5 22.0  670 123
2020 07 11 06  17 45 24.207   +10 43 06.85  1.1691 2.0508 139.4 22.0  674 123
2020 07 11 07  17 45 21.875   +10 42 29.61  1.1693 2.0509 139.4 22.0  679 123
2020 07 11 08  17 45 19.546   +10 41 52.34  1.1695 2.0510 139.4 22.0  683 123
2020 07 11 09  17 45 17.219   +10 41 15.04  1.1697 2.0510 139.4 22.0  688 123
2020 07 11 10  17 45 14.896   +10 40 37.71  1.1699 2.0511 139.4 22.0  692 123
2020 07 11 11  17 45 12.575   +10 40 00.36  1.1701 2.0512 139.3 22.0  697 123
2020 07 11 12  17 45 10.257   +10 39 22.97  1.1703 2.0512 139.3 22.0  701 123
2020 07 11 13  17 45 07.943   +10 38 45.56  1.1705 2.0513 139.3 22.0  706 123
2020 07 11 14  17 45 05.631   +10 38 08.12  1.1706 2.0514 139.3 22.1  710 123
2020 07 11 15  17 45 03.322   +10 37 30.65  1.1708 2.0515 139.3 22.1  715 123
2020 07 11 16  17 45 01.016   +10 36 53.15  1.1710 2.0515 139.3 22.1  720 123
2020 07 11 17  17 44 58.713   +10 36 15.62  1.1712 2.0516 139.2 22.1  724 123
2020 07 11 18  17 44 56.413   +10 35 38.07  1.1714 2.0517 139.2 22.1  729 123
2020 07 11 19  17 44 54.116   +10 35 00.48  1.1716 2.0517 139.2 22.1  733 123
2020 07 11 20  17 44 51.821   +10 34 22.87  1.1718 2.0518 139.2 22.1  738 123
2020 07 11 21  17 44 49.530   +10 33 45.23  1.1721 2.0519 139.2 22.1  743 123
2020 07 11 22  17 44 47.242   +10 33 07.56  1.1723 2.0520 139.1 22.1  747 123
2020 07 11 23  17 44 44.957   +10 32 29.86  1.1725 2.0520 139.1 22.1  752 123
2020 07 12 00  17 44 42.674   +10 31 52.14  1.1727 2.0521 139.1 22.1  757 123
2020 07 12 01  17 44 40.395   +10 31 14.38  1.1729 2.0522 139.1 22.1  762 123
2020 07 12 02  17 44 38.119   +10 30 36.60  1.1731 2.0522 139.1 22.1  766 123
2020 07 12 03  17 44 35.845   +10 29 58.79  1.1733 2.0523 139.1 22.1  771 123
2020 07 12 04  17 44 33.575   +10 29 20.96  1.1735 2.0524 139.0 22.1  776 123
2020 07 12 05  17 44 31.308   +10 28 43.09  1.1737 2.0524 139.0 22.1  781 123
2020 07 12 06  17 44 29.043   +10 28 05.20  1.1739 2.0525 139.0 22.1  785 122
2020 07 12 07  17 44 26.782   +10 27 27.28  1.1741 2.0526 139.0 22.1  790 122
2020 07 12 08  17 44 24.523   +10 26 49.33  1.1743 2.0527 139.0 22.1  795 122
2020 07 12 09  17 44 22.268   +10 26 11.36  1.1745 2.0527 138.9 22.1  800 122
2020 07 12 10  17 44 20.016   +10 25 33.35  1.1747 2.0528 138.9 22.1  805 122
2020 07 12 11  17 44 17.766   +10 24 55.32  1.1749 2.0529 138.9 22.1  810 122
2020 07 12 12  17 44 15.520   +10 24 17.27  1.1751 2.0529 138.9 22.1  815 122
2020 07 12 13  17 44 13.276   +10 23 39.18  1.1753 2.0530 138.9 22.1  819 122
2020 07 12 14  17 44 11.036   +10 23 01.07  1.1755 2.0531 138.9 22.1  824 122